Year,Month,Day,Hour,Minute,Value (Times are PST for temperature in C)
2018,08,09,00,00,20.00
2018,08,09,00,01,20.00
2018,08,09,00,02,20.00
2018,08,09,00,03,20.00
2018,08,09,00,04,19.90
2018,08,09,00,05,19.90
2018,08,09,00,06,19.90
2018,08,09,00,07,19.90
2018,08,09,00,08,19.90
2018,08,09,00,09,19.90
2018,08,09,00,10,19.90
2018,08,09,00,11,19.90
2018,08,09,00,12,19.90
2018,08,09,00,13,19.90
2018,08,09,00,14,19.80
2018,08,09,00,15,19.80
2018,08,09,00,16,19.80
2018,08,09,00,17,19.80
2018,08,09,00,18,19.80
2018,08,09,00,19,19.80
2018,08,09,00,20,19.80
2018,08,09,00,21,19.80
2018,08,09,00,22,19.70
2018,08,09,00,23,19.70
2018,08,09,00,24,19.70
2018,08,09,00,25,19.70
2018,08,09,00,26,19.70
2018,08,09,00,27,19.70
2018,08,09,00,28,19.70
2018,08,09,00,29,19.70
2018,08,09,00,30,19.70
2018,08,09,00,31,19.60
2018,08,09,00,32,19.60
2018,08,09,00,33,19.60
2018,08,09,00,34,19.60
2018,08,09,00,35,19.60
2018,08,09,00,36,19.60
2018,08,09,00,37,19.60
2018,08,09,00,38,19.60
2018,08,09,00,39,19.60
2018,08,09,00,40,19.50
2018,08,09,00,41,19.50
2018,08,09,00,42,19.50
2018,08,09,00,43,19.50
2018,08,09,00,44,19.40
2018,08,09,00,45,19.40
2018,08,09,00,46,19.40
2018,08,09,00,47,19.40
2018,08,09,00,48,19.40
2018,08,09,00,49,19.30
2018,08,09,00,50,19.30
2018,08,09,00,51,19.30
2018,08,09,00,52,19.30
2018,08,09,00,53,19.30
2018,08,09,00,54,19.30
2018,08,09,00,55,19.30
2018,08,09,00,56,19.30
2018,08,09,00,57,19.30
2018,08,09,00,58,19.30
2018,08,09,00,59,19.30
2018,08,09,01,00,19.30
2018,08,09,01,01,19.30
2018,08,09,01,02,19.30
2018,08,09,01,03,19.30
2018,08,09,01,04,19.20
2018,08,09,01,05,19.20
2018,08,09,01,06,19.20
2018,08,09,01,07,19.20
2018,08,09,01,08,19.20
2018,08,09,01,09,19.20
2018,08,09,01,10,19.20
2018,08,09,01,11,19.10
2018,08,09,01,12,19.10
2018,08,09,01,13,19.10
2018,08,09,01,14,19.10
2018,08,09,01,15,19.10
2018,08,09,01,16,19.10
2018,08,09,01,17,19.10
2018,08,09,01,18,19.00
2018,08,09,01,19,19.00
2018,08,09,01,20,19.00
2018,08,09,01,21,19.00
2018,08,09,01,22,18.90
2018,08,09,01,23,18.90
2018,08,09,01,24,18.90
2018,08,09,01,25,18.90
2018,08,09,01,26,18.90
2018,08,09,01,27,18.90
2018,08,09,01,28,18.90
2018,08,09,01,29,18.90
2018,08,09,01,30,18.90
2018,08,09,01,31,18.80
2018,08,09,01,32,18.80
2018,08,09,01,33,18.80
2018,08,09,01,34,18.80
2018,08,09,01,35,18.80
2018,08,09,01,36,18.80
2018,08,09,01,37,18.80
2018,08,09,01,38,18.80
2018,08,09,01,39,18.70
2018,08,09,01,40,18.70
2018,08,09,01,41,18.70
2018,08,09,01,42,18.70
2018,08,09,01,43,18.70
2018,08,09,01,44,18.70
2018,08,09,01,45,18.60
2018,08,09,01,46,18.60
2018,08,09,01,47,18.60
2018,08,09,01,48,18.60
2018,08,09,01,49,18.60
2018,08,09,01,50,18.60
2018,08,09,01,51,18.60
2018,08,09,01,52,18.60
2018,08,09,01,53,18.60
2018,08,09,01,54,18.50
2018,08,09,01,55,18.50
2018,08,09,01,56,18.50
2018,08,09,01,57,18.50
2018,08,09,01,58,18.50
2018,08,09,01,59,18.50
2018,08,09,02,00,18.50
2018,08,09,02,01,18.40
2018,08,09,02,02,18.40
2018,08,09,02,03,18.40
2018,08,09,02,04,18.40
2018,08,09,02,05,18.40
2018,08,09,02,06,18.40
2018,08,09,02,07,18.40
2018,08,09,02,08,18.40
2018,08,09,02,09,18.30
2018,08,09,02,10,18.30
2018,08,09,02,11,18.30
2018,08,09,02,12,18.30
2018,08,09,02,13,18.30
2018,08,09,02,14,18.30
2018,08,09,02,15,18.30
2018,08,09,02,16,18.20
2018,08,09,02,17,18.20
2018,08,09,02,18,18.20
2018,08,09,02,19,18.20
2018,08,09,02,20,18.10
2018,08,09,02,21,18.10
2018,08,09,02,22,18.10
2018,08,09,02,23,18.10
2018,08,09,02,24,18.10
2018,08,09,02,25,18.10
2018,08,09,02,26,18.10
2018,08,09,02,27,18.10
2018,08,09,02,28,18.10
2018,08,09,02,29,18.00
2018,08,09,02,30,18.00
2018,08,09,02,31,18.00
2018,08,09,02,32,18.00
2018,08,09,02,33,17.90
2018,08,09,02,34,17.90
2018,08,09,02,35,17.90
2018,08,09,02,36,17.90
2018,08,09,02,37,17.90
2018,08,09,02,38,17.90
2018,08,09,02,39,17.90
2018,08,09,02,40,17.90
2018,08,09,02,41,17.90
2018,08,09,02,42,17.80
2018,08,09,02,43,17.80
2018,08,09,02,44,17.80
2018,08,09,02,45,17.80
2018,08,09,02,46,17.80
2018,08,09,02,47,17.80
2018,08,09,02,48,17.80
2018,08,09,02,49,17.80
2018,08,09,02,50,17.70
2018,08,09,02,51,17.70
2018,08,09,02,52,17.70
2018,08,09,02,53,17.70
2018,08,09,02,54,17.70
2018,08,09,02,55,17.70
2018,08,09,02,56,17.70
2018,08,09,02,57,17.60
2018,08,09,02,58,17.60
2018,08,09,02,59,17.60
2018,08,09,03,00,17.60
2018,08,09,03,01,17.60
2018,08,09,03,02,17.60
2018,08,09,03,03,17.60
2018,08,09,03,04,17.60
2018,08,09,03,05,17.50
2018,08,09,03,06,17.50
2018,08,09,03,07,17.50
2018,08,09,03,08,17.50
2018,08,09,03,09,17.40
2018,08,09,03,10,17.40
2018,08,09,03,11,17.40
2018,08,09,03,12,17.40
2018,08,09,03,13,17.40
2018,08,09,03,14,17.40
2018,08,09,03,15,17.40
2018,08,09,03,16,17.40
2018,08,09,03,17,17.30
2018,08,09,03,18,17.30
2018,08,09,03,19,17.30
2018,08,09,03,20,17.30
2018,08,09,03,21,17.30
2018,08,09,03,22,17.30
2018,08,09,03,23,17.30
2018,08,09,03,24,17.30
2018,08,09,03,25,17.30
2018,08,09,03,26,17.30
2018,08,09,03,27,17.30
2018,08,09,03,28,17.30
2018,08,09,03,29,17.30
2018,08,09,03,30,17.30
2018,08,09,03,31,17.20
2018,08,09,03,32,17.20
2018,08,09,03,33,17.20
2018,08,09,03,34,17.20
2018,08,09,03,35,17.20
2018,08,09,03,36,17.20
2018,08,09,03,37,17.20
2018,08,09,03,38,17.20
2018,08,09,03,39,17.10
2018,08,09,03,40,17.10
2018,08,09,03,41,17.10
2018,08,09,03,42,17.10
2018,08,09,03,43,17.00
2018,08,09,03,44,17.00
2018,08,09,03,45,16.90
2018,08,09,03,46,16.90
2018,08,09,03,47,16.90
2018,08,09,03,48,16.90
2018,08,09,03,49,16.90
2018,08,09,03,50,16.90
2018,08,09,03,51,16.90
2018,08,09,03,52,16.90
2018,08,09,03,53,16.90
2018,08,09,03,54,16.90
2018,08,09,03,55,16.90
2018,08,09,03,56,16.90
2018,08,09,03,57,16.80
2018,08,09,03,58,16.80
2018,08,09,03,59,16.80
2018,08,09,04,00,16.80
2018,08,09,04,01,16.80
2018,08,09,04,02,16.80
2018,08,09,04,03,16.80
2018,08,09,04,04,16.80
2018,08,09,04,05,16.80
2018,08,09,04,06,16.80
2018,08,09,04,07,16.80
2018,08,09,04,08,16.70
2018,08,09,04,09,16.70
2018,08,09,04,10,16.70
2018,08,09,04,11,16.70
2018,08,09,04,12,16.70
2018,08,09,04,13,16.70
2018,08,09,04,14,16.70
2018,08,09,04,15,16.70
2018,08,09,04,16,16.70
2018,08,09,04,17,16.70
2018,08,09,04,18,16.70
2018,08,09,04,19,16.70
2018,08,09,04,20,16.70
2018,08,09,04,21,16.60
2018,08,09,04,22,16.60
2018,08,09,04,23,16.60
2018,08,09,04,24,16.60
2018,08,09,04,25,16.60
2018,08,09,04,26,16.60
2018,08,09,04,27,16.60
2018,08,09,04,28,16.60
2018,08,09,04,29,16.50
2018,08,09,04,30,16.50
2018,08,09,04,31,16.50
2018,08,09,04,32,16.50
2018,08,09,04,33,16.60
2018,08,09,04,34,16.50
2018,08,09,04,35,16.50
2018,08,09,04,36,16.50
2018,08,09,04,37,16.50
2018,08,09,04,38,16.40
2018,08,09,04,39,16.40
2018,08,09,04,40,16.40
2018,08,09,04,41,16.40
2018,08,09,04,42,16.40
2018,08,09,04,43,16.40
2018,08,09,04,44,16.40
2018,08,09,04,45,16.40
2018,08,09,04,46,16.40
2018,08,09,04,47,16.40
2018,08,09,04,48,16.40
2018,08,09,04,49,16.40
2018,08,09,04,50,16.40
2018,08,09,04,51,16.30
2018,08,09,04,52,16.30
2018,08,09,04,53,16.30
2018,08,09,04,54,16.30
2018,08,09,04,55,16.30
2018,08,09,04,56,16.30
2018,08,09,04,57,16.30
2018,08,09,04,58,16.30
2018,08,09,04,59,16.30
2018,08,09,05,00,16.30
2018,08,09,05,01,16.20
2018,08,09,05,02,16.20
2018,08,09,05,03,16.20
2018,08,09,05,04,16.20
2018,08,09,05,05,16.20
2018,08,09,05,06,16.20
2018,08,09,05,07,16.20
2018,08,09,05,08,16.20
2018,08,09,05,09,16.20
2018,08,09,05,10,16.20
2018,08,09,05,11,16.20
2018,08,09,05,12,16.20
2018,08,09,05,13,16.10
2018,08,09,05,14,16.10
2018,08,09,05,15,16.10
2018,08,09,05,16,16.10
2018,08,09,05,17,16.10
2018,08,09,05,18,16.10
2018,08,09,05,19,16.00
2018,08,09,05,20,16.00
2018,08,09,05,21,16.00
2018,08,09,05,22,16.00
2018,08,09,05,23,15.90
2018,08,09,05,24,15.90
2018,08,09,05,25,15.90
2018,08,09,05,26,15.90
2018,08,09,05,27,15.90
2018,08,09,05,28,15.90
2018,08,09,05,29,15.90
2018,08,09,05,30,15.90
2018,08,09,05,31,15.90
2018,08,09,05,32,15.90
2018,08,09,05,33,15.90
2018,08,09,05,34,15.90
2018,08,09,05,35,15.80
2018,08,09,05,36,15.80
2018,08,09,05,37,15.80
2018,08,09,05,38,15.80
2018,08,09,05,39,15.80
2018,08,09,05,40,15.90
2018,08,09,05,41,15.90
2018,08,09,05,42,15.90
2018,08,09,05,43,15.90
2018,08,09,05,44,15.90
2018,08,09,05,45,15.90
2018,08,09,05,46,15.90
2018,08,09,05,47,15.80
2018,08,09,05,48,15.80
2018,08,09,05,49,15.80
2018,08,09,05,50,15.80
2018,08,09,05,51,15.80
2018,08,09,05,52,15.80
2018,08,09,05,53,15.80
2018,08,09,05,54,15.70
2018,08,09,05,55,15.70
2018,08,09,05,56,15.70
2018,08,09,05,57,15.70
2018,08,09,05,58,15.70
2018,08,09,05,59,15.70
2018,08,09,06,00,15.60
2018,08,09,06,01,15.60
2018,08,09,06,02,15.60
2018,08,09,06,03,15.60
2018,08,09,06,04,15.60
2018,08,09,06,05,15.50
2018,08,09,06,06,15.50
2018,08,09,06,07,15.50
2018,08,09,06,08,15.50
2018,08,09,06,09,15.50
2018,08,09,06,10,15.40
2018,08,09,06,11,15.40
2018,08,09,06,12,15.40
2018,08,09,06,13,15.40
2018,08,09,06,14,15.40
2018,08,09,06,15,15.40
2018,08,09,06,16,15.40
2018,08,09,06,17,15.40
2018,08,09,06,18,15.30
2018,08,09,06,19,15.30
2018,08,09,06,20,15.30
2018,08,09,06,21,15.30
2018,08,09,06,22,15.30
2018,08,09,06,23,15.30
2018,08,09,06,24,15.30
2018,08,09,06,25,15.30
2018,08,09,06,26,15.30
2018,08,09,06,27,15.30
2018,08,09,06,28,15.20
2018,08,09,06,29,15.20
2018,08,09,06,30,15.20
2018,08,09,06,31,15.20
2018,08,09,06,32,15.20
2018,08,09,06,33,15.20
2018,08,09,06,34,15.20
2018,08,09,06,35,15.20
2018,08,09,06,36,15.20
2018,08,09,06,37,15.20
2018,08,09,06,38,15.20
2018,08,09,06,39,15.20
2018,08,09,06,40,15.20
2018,08,09,06,41,15.20
2018,08,09,06,42,15.20
2018,08,09,06,43,15.30
2018,08,09,06,44,15.30
2018,08,09,06,45,15.30
2018,08,09,06,46,15.30
2018,08,09,06,47,15.30
2018,08,09,06,48,15.30
2018,08,09,06,49,15.30
2018,08,09,06,50,15.30
2018,08,09,06,51,15.30
2018,08,09,06,52,15.30
2018,08,09,06,53,15.30
2018,08,09,06,54,15.30
2018,08,09,06,55,15.30
2018,08,09,06,56,15.30
2018,08,09,06,57,15.30
2018,08,09,06,58,15.30
2018,08,09,06,59,15.30
2018,08,09,07,00,15.30
2018,08,09,07,01,15.30
2018,08,09,07,02,15.30
2018,08,09,07,03,15.30
2018,08,09,07,04,15.30
2018,08,09,07,05,15.30
2018,08,09,07,06,15.30
2018,08,09,07,07,15.30
2018,08,09,07,08,15.30
2018,08,09,07,09,15.30
2018,08,09,07,10,15.30
2018,08,09,07,11,15.40
2018,08,09,07,12,15.40
2018,08,09,07,13,15.40
2018,08,09,07,14,15.40
2018,08,09,07,15,15.40
2018,08,09,07,16,15.40
2018,08,09,07,17,15.40
2018,08,09,07,18,15.50
2018,08,09,07,19,15.50
2018,08,09,07,20,15.50
2018,08,09,07,21,15.50
2018,08,09,07,22,15.50
2018,08,09,07,23,15.60
2018,08,09,07,24,15.60
2018,08,09,07,25,15.60
2018,08,09,07,26,15.60
2018,08,09,07,27,15.60
2018,08,09,07,28,15.60
2018,08,09,07,29,15.60
2018,08,09,07,30,15.70
2018,08,09,07,31,15.70
2018,08,09,07,32,15.70
2018,08,09,07,33,15.70
2018,08,09,07,34,15.80
2018,08,09,07,35,15.80
2018,08,09,07,36,15.80
2018,08,09,07,37,15.80
2018,08,09,07,38,15.90
2018,08,09,07,39,15.90
2018,08,09,07,40,15.90
2018,08,09,07,41,16.00
2018,08,09,07,42,16.00
2018,08,09,07,43,16.10
2018,08,09,07,44,16.10
2018,08,09,07,45,16.20
2018,08,09,07,46,16.20
2018,08,09,07,47,16.30
2018,08,09,07,48,16.30
2018,08,09,07,49,16.30
2018,08,09,07,50,16.40
2018,08,09,07,51,16.40
2018,08,09,07,52,16.40
2018,08,09,07,53,16.50
2018,08,09,07,54,16.50
2018,08,09,07,55,16.60
2018,08,09,07,56,16.60
2018,08,09,07,57,16.60
2018,08,09,07,58,16.60
2018,08,09,07,59,16.70
2018,08,09,08,00,16.70
2018,08,09,08,01,16.80
2018,08,09,08,02,16.80
2018,08,09,08,03,16.80
2018,08,09,08,04,16.90
2018,08,09,08,05,17.00
2018,08,09,08,06,17.00
2018,08,09,08,07,17.10
2018,08,09,08,08,17.20
2018,08,09,08,09,17.30
2018,08,09,08,10,17.40
2018,08,09,08,11,17.40
2018,08,09,08,12,17.50
2018,08,09,08,13,17.60
2018,08,09,08,14,17.70
2018,08,09,08,15,17.70
2018,08,09,08,16,17.90
2018,08,09,08,17,17.90
2018,08,09,08,18,18.00
2018,08,09,08,19,18.10
2018,08,09,08,20,18.20
2018,08,09,08,21,18.30
2018,08,09,08,22,18.40
2018,08,09,08,23,18.50
2018,08,09,08,24,18.60
2018,08,09,08,25,18.70
2018,08,09,08,26,18.70
2018,08,09,08,27,18.80
2018,08,09,08,28,18.90
2018,08,09,08,29,19.00
2018,08,09,08,30,19.10
2018,08,09,08,31,19.10
2018,08,09,08,32,19.20
2018,08,09,08,33,19.20
2018,08,09,08,34,19.30
2018,08,09,08,35,19.40
2018,08,09,08,36,19.40
2018,08,09,08,37,19.50
2018,08,09,08,38,19.60
2018,08,09,08,39,19.60
2018,08,09,08,40,19.70
2018,08,09,08,41,19.70
2018,08,09,08,42,19.80
2018,08,09,08,43,19.80
2018,08,09,08,44,19.80
2018,08,09,08,45,19.80
2018,08,09,08,46,19.90
2018,08,09,08,47,19.90
2018,08,09,08,48,20.00
2018,08,09,08,49,20.00
2018,08,09,08,50,20.00
2018,08,09,08,51,20.10
2018,08,09,08,52,20.10
2018,08,09,08,53,20.20
2018,08,09,08,54,20.30
2018,08,09,08,55,20.40
2018,08,09,08,56,20.50
2018,08,09,08,57,20.60
2018,08,09,08,58,20.60
2018,08,09,08,59,20.70
2018,08,09,09,00,20.80
2018,08,09,09,01,20.80
2018,08,09,09,02,20.90
2018,08,09,09,03,20.90
2018,08,09,09,04,21.00
2018,08,09,09,05,21.00
2018,08,09,09,06,21.10
2018,08,09,09,07,21.10
2018,08,09,09,08,21.10
2018,08,09,09,09,21.20
2018,08,09,09,10,21.20
2018,08,09,09,11,21.30
2018,08,09,09,12,21.30
2018,08,09,09,13,21.40
2018,08,09,09,14,21.40
2018,08,09,09,15,21.50
2018,08,09,09,16,21.50
2018,08,09,09,17,21.60
2018,08,09,09,18,21.60
2018,08,09,09,19,21.60
2018,08,09,09,20,21.70
2018,08,09,09,21,21.70
2018,08,09,09,22,21.80
2018,08,09,09,23,21.80
2018,08,09,09,24,21.90
2018,08,09,09,25,21.90
2018,08,09,09,26,22.00
2018,08,09,09,27,22.10
2018,08,09,09,28,22.10
2018,08,09,09,29,22.20
2018,08,09,09,30,22.20
2018,08,09,09,31,22.30
2018,08,09,09,32,22.30
2018,08,09,09,33,22.40
2018,08,09,09,34,22.40
2018,08,09,09,35,22.50
2018,08,09,09,36,22.50
2018,08,09,09,37,22.60
2018,08,09,09,38,22.60
2018,08,09,09,39,22.70
2018,08,09,09,40,22.80
2018,08,09,09,41,22.80
2018,08,09,09,42,22.90
2018,08,09,09,43,23.00
2018,08,09,09,44,23.00
2018,08,09,09,45,23.10
2018,08,09,09,46,23.20
2018,08,09,09,47,23.20
2018,08,09,09,48,23.30
2018,08,09,09,49,23.30
2018,08,09,09,50,23.40
2018,08,09,09,51,23.40
2018,08,09,09,52,23.50
2018,08,09,09,53,23.50
2018,08,09,09,54,23.60
2018,08,09,09,55,23.60
2018,08,09,09,56,23.70
2018,08,09,09,57,23.80
2018,08,09,09,58,23.80
2018,08,09,09,59,23.90
2018,08,09,10,00,23.90
2018,08,09,10,01,24.00
2018,08,09,10,02,24.10
2018,08,09,10,03,24.10
2018,08,09,10,04,24.20
2018,08,09,10,05,24.20
2018,08,09,10,06,24.30
2018,08,09,10,07,24.30
2018,08,09,10,08,24.40
2018,08,09,10,09,24.40
2018,08,09,10,10,24.50
2018,08,09,10,11,24.50
2018,08,09,10,12,24.60
2018,08,09,10,13,24.60
2018,08,09,10,14,24.60
2018,08,09,10,15,24.70
2018,08,09,10,16,24.70
2018,08,09,10,17,24.80
2018,08,09,10,18,24.80
2018,08,09,10,19,24.90
2018,08,09,10,20,24.90
2018,08,09,10,21,24.90
2018,08,09,10,22,25.00
2018,08,09,10,23,25.00
2018,08,09,10,24,25.10
2018,08,09,10,25,25.10
2018,08,09,10,26,25.20
2018,08,09,10,27,25.30
2018,08,09,10,28,25.40
2018,08,09,10,29,25.40
2018,08,09,10,30,25.40
2018,08,09,10,31,25.50
2018,08,09,10,32,25.50
2018,08,09,10,33,25.60
2018,08,09,10,34,25.60
2018,08,09,10,35,25.60
2018,08,09,10,36,25.60
2018,08,09,10,37,25.70
2018,08,09,10,38,25.70
2018,08,09,10,39,25.70
2018,08,09,10,40,25.60
2018,08,09,10,41,25.60
2018,08,09,10,42,25.60
2018,08,09,10,43,25.70
2018,08,09,10,44,25.70
2018,08,09,10,45,25.70
2018,08,09,10,46,25.70
2018,08,09,10,47,25.80
2018,08,09,10,48,25.70
2018,08,09,10,49,25.70
2018,08,09,10,50,25.70
2018,08,09,10,51,25.70
2018,08,09,10,52,25.70
2018,08,09,10,53,25.80
2018,08,09,10,54,25.80
2018,08,09,10,55,25.70
2018,08,09,10,56,25.70
2018,08,09,10,57,25.70
2018,08,09,10,58,25.70
2018,08,09,10,59,25.60
2018,08,09,11,00,25.60
2018,08,09,11,01,25.60
2018,08,09,11,02,25.50
2018,08,09,11,03,25.50
2018,08,09,11,04,25.40
2018,08,09,11,05,25.40
2018,08,09,11,06,25.40
2018,08,09,11,07,25.40
2018,08,09,11,08,25.40
2018,08,09,11,09,25.40
2018,08,09,11,10,25.50
2018,08,09,11,11,25.50
2018,08,09,11,12,25.50
2018,08,09,11,13,25.50
2018,08,09,11,14,25.50
2018,08,09,11,15,25.50
2018,08,09,11,16,25.50
2018,08,09,11,17,25.50
2018,08,09,11,18,25.50
2018,08,09,11,19,25.50
2018,08,09,11,20,25.50
2018,08,09,11,21,25.50
2018,08,09,11,22,25.50
2018,08,09,11,23,25.50
2018,08,09,11,24,25.60
2018,08,09,11,25,25.60
2018,08,09,11,26,25.70
2018,08,09,11,27,25.70
2018,08,09,11,28,25.70
2018,08,09,11,29,25.70
2018,08,09,11,30,25.70
2018,08,09,11,31,25.70
2018,08,09,11,32,25.70
2018,08,09,11,33,25.70
2018,08,09,11,34,25.70
2018,08,09,11,35,25.70
2018,08,09,11,36,25.70
2018,08,09,11,37,25.70
2018,08,09,11,38,25.70
2018,08,09,11,39,25.70
2018,08,09,11,40,25.70
2018,08,09,11,41,25.80
2018,08,09,11,42,25.80
2018,08,09,11,43,25.80
2018,08,09,11,44,25.90
2018,08,09,11,45,25.90
2018,08,09,11,46,26.00
2018,08,09,11,47,26.00
2018,08,09,11,48,26.10
2018,08,09,11,49,26.20
2018,08,09,11,50,26.20
2018,08,09,11,51,26.30
2018,08,09,11,52,26.30
2018,08,09,11,53,26.40
2018,08,09,11,54,26.40
2018,08,09,11,55,26.40
2018,08,09,11,56,26.50
2018,08,09,11,57,26.50
2018,08,09,11,58,26.60
2018,08,09,11,59,26.60
2018,08,09,12,00,26.60
2018,08,09,12,01,26.60
2018,08,09,12,02,26.70
2018,08,09,12,03,26.70
2018,08,09,12,04,26.70
2018,08,09,12,05,26.60
2018,08,09,12,06,26.70
2018,08,09,12,07,26.70
2018,08,09,12,08,26.70
2018,08,09,12,09,26.70
2018,08,09,12,10,26.70
2018,08,09,12,11,26.70
2018,08,09,12,12,26.80
2018,08,09,12,13,26.80
2018,08,09,12,14,26.90
2018,08,09,12,15,26.90
2018,08,09,12,16,27.00
2018,08,09,12,17,27.00
2018,08,09,12,18,27.10
2018,08,09,12,19,27.10
2018,08,09,12,20,27.10
2018,08,09,12,21,27.20
2018,08,09,12,22,27.20
2018,08,09,12,23,27.30
2018,08,09,12,24,27.30
2018,08,09,12,25,27.40
2018,08,09,12,26,27.40
2018,08,09,12,27,27.40
2018,08,09,12,28,27.50
2018,08,09,12,29,27.50
2018,08,09,12,30,27.40
2018,08,09,12,31,27.40
2018,08,09,12,32,27.40
2018,08,09,12,33,27.40
2018,08,09,12,34,27.40
2018,08,09,12,35,27.50
2018,08,09,12,36,27.50
2018,08,09,12,37,27.40
2018,08,09,12,38,27.40
2018,08,09,12,39,27.40
2018,08,09,12,40,27.40
2018,08,09,12,41,27.40
2018,08,09,12,42,27.40
2018,08,09,12,43,27.30
2018,08,09,12,44,27.40
2018,08,09,12,45,27.40
2018,08,09,12,46,27.40
2018,08,09,12,47,27.50
2018,08,09,12,48,27.50
2018,08,09,12,49,27.50
2018,08,09,12,50,27.60
2018,08,09,12,51,27.60
2018,08,09,12,52,27.60
2018,08,09,12,53,27.60
2018,08,09,12,54,27.60
2018,08,09,12,55,27.60
2018,08,09,12,56,27.70
2018,08,09,12,57,27.70
2018,08,09,12,58,27.70
2018,08,09,12,59,27.80
2018,08,09,13,00,27.80
2018,08,09,13,01,27.80
2018,08,09,13,02,27.90
2018,08,09,13,03,27.90
2018,08,09,13,04,27.90
2018,08,09,13,05,27.90
2018,08,09,13,06,28.00
2018,08,09,13,07,28.10
2018,08,09,13,08,28.10
2018,08,09,13,09,28.20
2018,08,09,13,10,28.30
2018,08,09,13,11,28.40
2018,08,09,13,12,28.50
2018,08,09,13,13,28.50
2018,08,09,13,14,28.60
2018,08,09,13,15,28.60
2018,08,09,13,16,28.70
2018,08,09,13,17,28.80
2018,08,09,13,18,28.90
2018,08,09,13,19,29.10
2018,08,09,13,20,29.30
2018,08,09,13,21,29.40
2018,08,09,13,22,29.60
2018,08,09,13,23,29.80
2018,08,09,13,24,29.90
2018,08,09,13,25,30.10
2018,08,09,13,26,30.20
2018,08,09,13,27,30.20
2018,08,09,13,28,30.20
2018,08,09,13,29,30.20
2018,08,09,13,30,30.20
2018,08,09,13,31,30.30
2018,08,09,13,32,30.30
2018,08,09,13,33,30.40
2018,08,09,13,34,30.60
2018,08,09,13,35,30.70
2018,08,09,13,36,30.80
2018,08,09,13,37,30.80
2018,08,09,13,38,30.80
2018,08,09,13,39,30.80
2018,08,09,13,40,30.70
2018,08,09,13,41,30.60
2018,08,09,13,42,30.50
2018,08,09,13,43,30.30
2018,08,09,13,44,30.20
2018,08,09,13,45,30.20
2018,08,09,13,46,30.10
2018,08,09,13,47,30.10
2018,08,09,13,48,30.10
2018,08,09,13,49,30.20
2018,08,09,13,50,30.10
2018,08,09,13,51,30.10
2018,08,09,13,52,30.00
2018,08,09,13,53,30.00
2018,08,09,13,54,30.00
2018,08,09,13,55,30.10
2018,08,09,13,56,30.30
2018,08,09,13,57,30.50
2018,08,09,13,58,30.70
2018,08,09,13,59,30.80
2018,08,09,14,00,31.00
2018,08,09,14,01,31.10
2018,08,09,14,02,31.20
2018,08,09,14,03,31.30
2018,08,09,14,04,31.40
2018,08,09,14,05,31.40
2018,08,09,14,06,31.40
2018,08,09,14,07,31.40
2018,08,09,14,08,31.30
2018,08,09,14,09,31.00
2018,08,09,14,10,30.90
2018,08,09,14,11,30.80
2018,08,09,14,12,30.70
2018,08,09,14,13,30.60
2018,08,09,14,14,30.50
2018,08,09,14,15,30.40
2018,08,09,14,16,30.30
2018,08,09,14,17,30.30
2018,08,09,14,18,30.30
2018,08,09,14,19,30.40
2018,08,09,14,20,30.50
2018,08,09,14,21,30.70
2018,08,09,14,22,30.90
2018,08,09,14,23,31.00
2018,08,09,14,24,31.20
2018,08,09,14,25,31.30
2018,08,09,14,26,31.50
2018,08,09,14,27,31.70
2018,08,09,14,28,31.80
2018,08,09,14,29,31.70
2018,08,09,14,30,31.70
2018,08,09,14,31,31.70
2018,08,09,14,32,31.70
2018,08,09,14,33,31.70
2018,08,09,14,34,31.70
2018,08,09,14,35,31.60
2018,08,09,14,36,31.60
2018,08,09,14,37,31.50
2018,08,09,14,38,31.40
2018,08,09,14,39,31.20
2018,08,09,14,40,31.10
2018,08,09,14,41,31.20
2018,08,09,14,42,31.30
2018,08,09,14,43,31.30
2018,08,09,14,44,31.30
2018,08,09,14,45,31.40
2018,08,09,14,46,31.40
2018,08,09,14,47,31.50
2018,08,09,14,48,31.60
2018,08,09,14,49,31.80
2018,08,09,14,50,31.90
2018,08,09,14,51,32.00
2018,08,09,14,52,32.20
2018,08,09,14,53,32.30
2018,08,09,14,54,32.30
2018,08,09,14,55,32.30
2018,08,09,14,56,32.40
2018,08,09,14,57,32.40
2018,08,09,14,58,32.40
2018,08,09,14,59,32.50
2018,08,09,15,00,32.50
2018,08,09,15,01,32.60
2018,08,09,15,02,32.60
2018,08,09,15,03,32.60
2018,08,09,15,04,32.60
2018,08,09,15,05,32.60
2018,08,09,15,06,32.60
2018,08,09,15,07,32.70
2018,08,09,15,08,32.70
2018,08,09,15,09,32.60
2018,08,09,15,10,32.50
2018,08,09,15,11,32.30
2018,08,09,15,12,32.20
2018,08,09,15,13,32.10
2018,08,09,15,14,32.10
2018,08,09,15,15,32.10
2018,08,09,15,16,32.10
2018,08,09,15,17,32.10
2018,08,09,15,18,32.20
2018,08,09,15,19,32.30
2018,08,09,15,20,32.40
2018,08,09,15,21,32.40
2018,08,09,15,22,32.40
2018,08,09,15,23,32.40
2018,08,09,15,24,32.50
2018,08,09,15,25,32.40
2018,08,09,15,26,32.40
2018,08,09,15,27,32.30
2018,08,09,15,28,32.30
2018,08,09,15,29,32.30
2018,08,09,15,30,32.30
2018,08,09,15,31,32.40
2018,08,09,15,32,32.60
2018,08,09,15,33,32.70
2018,08,09,15,34,32.80
2018,08,09,15,35,32.80
2018,08,09,15,36,32.70
2018,08,09,15,37,32.60
2018,08,09,15,38,32.60
2018,08,09,15,39,32.60
2018,08,09,15,40,32.60
2018,08,09,15,41,32.60
2018,08,09,15,42,32.70
2018,08,09,15,43,32.80
2018,08,09,15,44,32.80
2018,08,09,15,45,32.70
2018,08,09,15,46,32.70
2018,08,09,15,47,32.70
2018,08,09,15,48,32.60
2018,08,09,15,49,32.60
2018,08,09,15,50,32.50
2018,08,09,15,51,32.50
2018,08,09,15,52,32.50
2018,08,09,15,53,32.40
2018,08,09,15,54,32.40
2018,08,09,15,55,32.40
2018,08,09,15,56,32.30
2018,08,09,15,57,32.30
2018,08,09,15,58,32.20
2018,08,09,15,59,32.10
2018,08,09,16,00,32.10
2018,08,09,16,01,32.10
2018,08,09,16,02,32.10
2018,08,09,16,03,32.10
2018,08,09,16,04,32.10
2018,08,09,16,05,32.20
2018,08,09,16,06,32.20
2018,08,09,16,07,32.30
2018,08,09,16,08,32.30
2018,08,09,16,09,32.30
2018,08,09,16,10,32.30
2018,08,09,16,11,32.30
2018,08,09,16,12,32.30
2018,08,09,16,13,32.30
2018,08,09,16,14,32.30
2018,08,09,16,15,32.30
2018,08,09,16,16,32.20
2018,08,09,16,17,32.20
2018,08,09,16,18,32.20
2018,08,09,16,19,32.20
2018,08,09,16,20,32.20
2018,08,09,16,21,32.20
2018,08,09,16,22,32.20
2018,08,09,16,23,32.20
2018,08,09,16,24,32.20
2018,08,09,16,25,32.20
2018,08,09,16,26,32.20
2018,08,09,16,27,32.20
2018,08,09,16,28,32.20
2018,08,09,16,29,32.20
2018,08,09,16,30,32.20
2018,08,09,16,31,32.20
2018,08,09,16,32,32.20
2018,08,09,16,33,32.20
2018,08,09,16,34,32.20
2018,08,09,16,35,32.20
2018,08,09,16,36,32.20
2018,08,09,16,37,32.20
2018,08,09,16,38,32.20
2018,08,09,16,39,32.20
2018,08,09,16,40,32.10
2018,08,09,16,41,32.20
2018,08,09,16,42,32.20
2018,08,09,16,43,32.20
2018,08,09,16,44,32.20
2018,08,09,16,45,32.20
2018,08,09,16,46,32.20
2018,08,09,16,47,32.20
2018,08,09,16,48,32.20
2018,08,09,16,49,32.20
2018,08,09,16,50,32.10
2018,08,09,16,51,32.10
2018,08,09,16,52,32.10
2018,08,09,16,53,32.10
2018,08,09,16,54,32.10
2018,08,09,16,55,32.10
2018,08,09,16,56,32.10
2018,08,09,16,57,32.10
2018,08,09,16,58,32.20
2018,08,09,16,59,32.20
2018,08,09,17,00,32.30
2018,08,09,17,01,32.30
2018,08,09,17,02,32.30
2018,08,09,17,03,32.40
2018,08,09,17,04,32.40
2018,08,09,17,05,32.40
2018,08,09,17,06,32.40
2018,08,09,17,07,32.40
2018,08,09,17,08,32.30
2018,08,09,17,09,32.30
2018,08,09,17,10,32.30
2018,08,09,17,11,32.20
2018,08,09,17,12,32.20
2018,08,09,17,13,32.20
2018,08,09,17,14,32.10
2018,08,09,17,15,32.10
2018,08,09,17,16,32.10
2018,08,09,17,17,32.10
2018,08,09,17,18,32.10
2018,08,09,17,19,32.10